[[{"header":{"parameterUnit":"m.s-1","parameterCategory":2,"la1":30.2991,"la2":30.254,"lo1":-89.0895,"lo2":-89.0444,"dy":0.0017,"dx":0.0017,"nx":28,"ny":28,"refTime":"2024-09-28T09:00:00:Z","depth":"0","parameterNumber":2,"parameterNumberName":"U-component_of_CURRENTS"},"data":[0,0,0,0,0,0,0,0,0,0,0,0,0,0,0,0,0,0,0,0,0,0,0,0,0,0,0,0,0,0,0,0,0,0,0,0,0,0,0,0,0,0,0,0,0,0,0,0,0,0,0,0,0,0,0,0,0,0,0.093,0.0931,0,0.1019,0.102,0.1021,0.1035,0.1035,0.1034,0.1033,0.1052,0.1053,0.1054,0,0,0,0,0,0,0,0,0,0,0,0,0,0.0851,0.0852,0.093,0.0931,0.0932,0.1019,0.102,0.1021,0.1036,0.1035,0.1034,0.1033,0.1051,0.1053,0.1054,0,0,0,0,0,0,0,0,0,0,0,0,0,0.0906,0.0852,0.093,0.095,0.0953,0.1018,0.102,0.1021,0.1036,0.1035,0.1034,0.1032,0.1051,0.1053,0.1054,0.1088,0,0,0.106,0.1061,0,0,0,0,0,0,0,0,0.0903,0.0909,0.0946,0.0949,0.0952,0.1015,0.0999,0.104,0.1036,0.1004,0.1033,0.1032,0.1034,0.1037,0.1057,0.1088,0.1089,0.106,0.1061,0.1062,0.1062,0,0,0,0,0,0,0,0.0899,0.0906,0.0965,0.0947,0.0951,0.0981,0.0987,0.1007,0.1023,0.1007,0.1008,0.1019,0.1035,0.1055,0.1057,0.1089,0.106,0.1061,0.1063,0.1063,0.1151,0.1152,0,0,0,0,0,0,0.0886,0.0902,0.0962,0.0968,0.0925,0.0983,0.099,0.0996,0.1024,0.1028,0.102,0.1019,0.1053,0.1055,0.1058,0.1124,0.1062,0.1063,0.1064,0.1149,0.1151,0.1152,0,0,0,0,0,0,0.0884,0.089,0.0959,0.0937,0.0948,0.0985,0.0992,0.0998,0.1019,0.1035,0.1037,0.1034,0.1052,0.1055,0.1093,0.1123,0.1064,0.1066,0.1148,0.115,0.1151,0.1239,0,0,0,0,0,0,0.0881,0.0889,0.0896,0.0936,0.0949,0.1009,0.0994,0.1001,0.1027,0.1027,0.1048,0.1048,0.1051,0.109,0.1095,0.1124,0.1067,0.1146,0.1149,0.1151,0.1234,0.1243,0.1251,0,0,0,0,0,0.0878,0.0896,0.0895,0.0903,0.0954,0.1011,0.1021,0.1043,0.1029,0.1054,0.1067,0.1048,0.1107,0.1094,0.1098,0.1129,0.1145,0.1148,0.1151,0.123,0.1241,0.1251,0,0,0,0,0,0,0.0876,0.0901,0.09,0.0927,0.0968,0.1013,0.1043,0.1047,0.1079,0.1075,0.1075,0.1079,0.1121,0.1112,0.1096,0.1158,0.1118,0.1122,0.1177,0.1188,0.1196,0.1204,0.1069,0,0,0,0,0,0.0875,0.0888,0.0925,0.0949,0.0971,0.1004,0.1029,0.1043,0.1074,0.1087,0.1104,0.1116,0.1138,0.1151,0.117,0.1211,0.1228,0.1228,0.1237,0.1244,0.1253,0.1298,0.1312,0.1161,0.1161,0.1161,0,0,0.0883,0.0897,0.0906,0.0949,0.0982,0.1031,0.1017,0.1063,0.1101,0.1083,0.1143,0.1149,0.1155,0.1205,0.1221,0.1201,0.1304,0.1248,0.1254,0.1259,0.1303,0.1318,0.1331,0.1163,0.1163,0.1163,0,0,0.0915,0.0919,0.0947,0.0981,0.1028,0.1054,0.1065,0.1116,0.1138,0.1192,0.1187,0.1216,0.1252,0.1272,0.128,0.1344,0.1346,0.134,0.1396,0.1441,0.1454,0.1466,0.1546,0.1563,0.1346,0.1346,0.1346,0,0.0914,0.096,0.0969,0.1012,0.1045,0.1064,0.1114,0.115,0.1206,0.1233,0.1218,0.1287,0.1286,0.1348,0.137,0.1365,0.1401,0.136,0.1454,0.1465,0.1476,0.1554,0.1573,0.135,0.135,0.1349,0.1349,0,0.0982,0.1014,0.1041,0.1091,0.1128,0.1177,0.122,0.126,0.1277,0.1311,0.1375,0.139,0.1427,0.1431,0.1421,0.1496,0.1504,0.1461,0.1432,0.1497,0.1575,0.1593,0.1357,0.1355,0.1354,0.1353,0,0,0.097,0.1065,0.1074,0.1107,0.117,0.1206,0.1272,0.1342,0.1385,0.1435,0.1501,0.1537,0.1541,0.155,0.1545,0.1582,0.1694,0.1559,0.1559,0.1646,0.1834,0.1924,0.1952,0.167,0.1673,0.1675,0.1874,0,0.1016,0.1108,0.1143,0.1225,0.1271,0.1304,0.1361,0.1418,0.1465,0.1538,0.1564,0.1621,0.1588,0.1608,0.1647,0.1679,0.1739,0.1647,0.175,0.1754,0.1832,0.1974,0.196,0.2143,0.1891,0.1894,0.1896,0,0.106,0.1117,0.1207,0.1281,0.1304,0.1353,0.1433,0.1487,0.158,0.1617,0.1682,0.1708,0.1791,0.1732,0.1853,0.1799,0.183,0.1849,0.1856,0.1919,0.1877,0.2028,0.2185,0.2121,0.1924,0.1921,0.1919,0,0.104,0.1147,0.1217,0.1247,0.1344,0.1382,0.1429,0.1511,0.1575,0.1672,0.1737,0.182,0.188,0.1927,0.199,0.1926,0.2129,0.2037,0.2157,0.2164,0.2163,0.2166,0.2272,0.2125,0.2125,0.2124,0.2123,0,0.1062,0.1116,0.1215,0.1254,0.1335,0.1379,0.1466,0.1524,0.1626,0.172,0.1775,0.1874,0.1928,0.2047,0.2065,0.2217,0.22,0.2221,0.2237,0.2198,0.2201,0.2149,0.2083,0.2131,0.213,0.2128,0.2127,0,0.104,0.1109,0.1187,0.1292,0.1329,0.1379,0.15,0.1569,0.165,0.1778,0.1819,0.1961,0.2125,0.2215,0.2326,0.2342,0.2412,0.2485,0.2467,0.2479,0.2508,0.2447,0.2486,0.2452,0.2657,0.2661,0.2664,0,0.1052,0.1087,0.1203,0.1259,0.1316,0.1402,0.1473,0.1573,0.1653,0.1834,0.1907,0.2107,0.2253,0.2506,0.2596,0.2733,0.258,0.2767,0.2628,0.2572,0.2514,0.2351,0.2304,0.2671,0.2674,0.2676,0.2678,0,0.1068,0.1097,0.1169,0.1276,0.1362,0.1453,0.1556,0.1618,0.1739,0.1853,0.2017,0.2147,0.2441,0.2596,0.2809,0.2869,0.2676,0.2821,0.2749,0.2557,0.2397,0.235,0.2493,0.2699,0.2697,0.2696,0.2695,0.2694,0.1079,0.1129,0.1214,0.1313,0.1399,0.1482,0.1532,0.1642,0.1757,0.1901,0.2043,0.2219,0.249,0.2804,0.2874,0.2986,0.2863,0.2893,0.2839,0.269,0.2613,0.2845,0.3066,0.3066,0.3066,0.3066,0.3066,0,0.1116,0.1175,0.1257,0.1368,0.1427,0.1481,0.158,0.1611,0.1709,0.1889,0.2028,0.2304,0.2544,0.2756,0.2996,0.2971,0.2825,0.2909,0.2635,0.2598,0.2818,0.2774,0.2957,0.2958,0.2958,0.2958,0.2958,0.2958,0.1152,0.123,0.1274,0.1376,0.143,0.1485,0.1515,0.1565,0.1667,0.1828,0.1982,0.2138,0.2477,0.2807,0.2926,0.2892,0.2682,0.2624,0.2567,0.2676,0.2666,0.2657,0.2601,0.2745,0.2744,0.2271,0.2268,0.2265]},{"header":{"parameterUnit":"m.s-1","parameterCategory":2,"la1":30.2991,"la2":30.254,"lo1":-89.0895,"lo2":-89.0444,"dy":0.0017,"dx":0.0017,"nx":28,"ny":28,"refTime":"2024-09-28T09:00:00:Z","depth":"0","parameterNumber":3,"parameterNumberName":"V-component_of_CURRENTS"},"data":[0,0,0,0,0,0,0,0,0,0,0,0,0,0,0,0,0,0,0,0,0,0,0,0,0,0,0,0,0,0,0,0,0,0,0,0,0,0,0,0,0,0,0,0,0,0,0,0,0,0,0,0,0,0,0,0,0,0,-0.0101,-0.0101,0,-0.0106,-0.0106,-0.0105,-0.0105,-0.0105,-0.0105,-0.0106,-0.0108,-0.0108,-0.0108,0,0,0,0,0,0,0,0,0,0,0,0,0,-0.0039,-0.004,-0.0101,-0.0101,-0.0101,-0.0106,-0.0106,-0.0105,-0.0105,-0.0105,-0.0105,-0.0106,-0.0108,-0.0108,-0.0108,0,0,0,0,0,0,0,0,0,0,0,0,0,-0.0054,-0.004,-0.01,-0.0104,-0.0105,-0.0106,-0.0106,-0.0105,-0.0105,-0.0105,-0.0105,-0.0106,-0.0108,-0.0108,-0.0108,-0.0099,0,0,-0.0107,-0.0107,0,0,0,0,0,0,0,0,-0.0053,-0.0055,-0.0103,-0.0104,-0.0105,-0.0108,-0.0085,-0.0104,-0.0105,-0.0101,-0.0106,-0.0106,-0.011,-0.011,-0.0105,-0.0099,-0.0099,-0.0107,-0.0107,-0.0107,-0.0107,0,0,0,0,0,0,0,-0.0052,-0.0055,-0.0099,-0.0104,-0.0105,-0.0089,-0.0091,-0.0088,-0.01,-0.0101,-0.0102,-0.0109,-0.011,-0.0105,-0.0105,-0.0099,-0.0107,-0.0107,-0.0107,-0.0107,-0.0155,-0.0156,0,0,0,0,0,0,-0.0061,-0.0054,-0.0099,-0.0099,-0.0084,-0.009,-0.0093,-0.0104,-0.01,-0.0101,-0.0108,-0.0109,-0.0105,-0.0105,-0.0105,-0.0134,-0.0107,-0.0107,-0.0107,-0.0153,-0.0155,-0.0157,0,0,0,0,0,0,-0.006,-0.0065,-0.0099,-0.0079,-0.0083,-0.0091,-0.0103,-0.0104,-0.0102,-0.0107,-0.0107,-0.0108,-0.0105,-0.0105,-0.0117,-0.0133,-0.0107,-0.0106,-0.0152,-0.0154,-0.0156,-0.0167,0,0,0,0,0,0,-0.0058,-0.0065,-0.0065,-0.008,-0.0085,-0.0098,-0.0103,-0.0104,-0.0108,-0.0108,-0.0106,-0.0106,-0.0106,-0.0118,-0.0117,-0.0132,-0.0106,-0.015,-0.0153,-0.0155,-0.0164,-0.0169,-0.0173,0,0,0,0,0,-0.0056,-0.0054,-0.0066,-0.0071,-0.0089,-0.0099,-0.0098,-0.0103,-0.0107,-0.0103,-0.0115,-0.0107,-0.0135,-0.0118,-0.0117,-0.0132,-0.0149,-0.0152,-0.0155,-0.0163,-0.0168,-0.0173,0,0,0,0,0,0,-0.0014,-0.0055,-0.0067,-0.0075,-0.0089,-0.01,-0.0094,-0.0103,-0.0107,-0.0108,-0.0114,-0.0115,-0.0137,-0.0135,-0.0117,-0.0159,-0.0145,-0.0148,-0.0151,-0.0156,-0.016,-0.014,-0.0106,0,0,0,0,0,-0.0011,-0.0029,-0.0057,-0.0062,-0.0069,-0.0083,-0.0084,-0.0093,-0.0104,-0.0105,-0.011,-0.0125,-0.0148,-0.0151,-0.0165,-0.0173,-0.0163,-0.0189,-0.0193,-0.0197,-0.0183,-0.0206,-0.021,-0.0167,-0.0167,-0.0167,0,0,0.0008,-0.0021,-0.0027,-0.0055,-0.0063,-0.0072,-0.0083,-0.0089,-0.0098,-0.0105,-0.0112,-0.0135,-0.0157,-0.0178,-0.0188,-0.0176,-0.0201,-0.0201,-0.0203,-0.0187,-0.021,-0.0214,-0.0217,-0.0169,-0.0169,-0.0169,0,0,0.003,0.0006,-0.0001,-0.0018,-0.0043,-0.0057,-0.0062,-0.008,-0.0088,-0.0103,-0.0126,-0.0156,-0.0171,-0.0197,-0.0212,-0.0245,-0.0227,-0.0258,-0.0252,-0.0276,-0.0279,-0.0281,-0.0255,-0.0255,-0.0254,-0.0254,-0.0254,0,0.0056,0.0035,0.0001,-0.0012,-0.002,-0.0053,-0.0053,-0.007,-0.0091,-0.0096,-0.0107,-0.0158,-0.0182,-0.0218,-0.0242,-0.0252,-0.0245,-0.0228,-0.0278,-0.0281,-0.0283,-0.0256,-0.0256,-0.0255,-0.0255,-0.0255,-0.0255,0,0.0068,0.0053,0.005,0.0014,0.0003,-0.0003,-0.0039,-0.005,-0.007,-0.0088,-0.0124,-0.0164,-0.0188,-0.0221,-0.0242,-0.028,-0.0261,-0.0284,-0.0258,-0.0288,-0.0258,-0.0257,-0.0256,-0.0256,-0.0256,-0.0256,0,0,0.0117,0.0069,0.0067,0.0064,0.0015,0.0016,-0.0012,-0.0034,-0.0028,-0.008,-0.0073,-0.0161,-0.0178,-0.0198,-0.0237,-0.0271,-0.0292,-0.0284,-0.0285,-0.0243,-0.0306,-0.0265,-0.026,-0.0325,-0.0326,-0.0326,-0.027,0,0.0139,0.0133,0.0093,0.0094,0.0094,0.0051,0.004,0.0013,-0.0009,-0.001,-0.0081,-0.0095,-0.0172,-0.0177,-0.0231,-0.0268,-0.0295,-0.0302,-0.0296,-0.0294,-0.0243,-0.026,-0.027,-0.0219,-0.0269,-0.0269,-0.0269,0,0.0158,0.0152,0.0159,0.0146,0.0145,0.0137,0.0132,0.0115,0.0083,0.0071,0.0025,-0.0011,-0.0072,-0.0129,-0.0213,-0.0212,-0.0261,-0.0298,-0.0297,-0.0252,-0.0254,-0.0204,-0.0216,-0.0371,-0.0269,-0.0269,-0.0269,0,0.0214,0.0198,0.021,0.0202,0.018,0.0181,0.0169,0.0144,0.0161,0.0126,0.0155,0.0063,0.0062,-0.0046,-0.0128,-0.0171,-0.0188,-0.0254,-0.026,-0.0256,-0.0257,-0.0251,-0.0404,-0.0316,-0.0316,-0.0316,-0.0316,0,0.0246,0.026,0.0243,0.0248,0.0286,0.0243,0.028,0.0257,0.0261,0.0308,0.0205,0.0242,0.0079,0.005,-0.007,-0.0133,-0.0142,-0.0246,-0.0246,-0.0259,-0.0255,-0.0382,-0.0463,-0.0314,-0.0315,-0.0315,-0.0315,0,0.0306,0.0284,0.0309,0.0304,0.0309,0.0338,0.0361,0.0403,0.038,0.0446,0.0445,0.0401,0.036,0.023,0.0109,-0.0015,-0.0175,-0.013,-0.0104,-0.0103,-0.0287,-0.0366,-0.0443,-0.0495,-0.0145,-0.0144,-0.0143,0,0.0338,0.0354,0.0368,0.0402,0.0402,0.0436,0.0477,0.0463,0.0517,0.0554,0.0612,0.0597,0.0614,0.0472,0.0254,0.009,-0.008,-0.0043,-0.0158,-0.0286,-0.0376,-0.0423,-0.0467,-0.0154,-0.0153,-0.0152,-0.0152,0,0.0417,0.0416,0.0438,0.0506,0.0554,0.0608,0.0659,0.0719,0.0728,0.0789,0.0873,0.0891,0.0767,0.0607,0.0385,0.0227,-0.0147,-0.0033,-0.02,-0.0416,-0.0445,-0.0497,-0.0167,-0.0145,-0.0146,-0.0147,-0.0147,-0.0147,0.0485,0.0523,0.0556,0.0625,0.0683,0.0767,0.0826,0.0902,0.0996,0.1093,0.1091,0.1148,0.088,0.0575,0.0361,-0.0071,-0.0074,-0.0247,-0.033,-0.0364,-0.0436,-0.0057,-0.0022,-0.0022,-0.0022,-0.0021,-0.0021,0,0.0572,0.0609,0.0681,0.075,0.0831,0.0841,0.0948,0.1015,0.114,0.1253,0.1327,0.1234,0.09,0.0523,-0.0034,-0.0333,-0.0465,-0.0512,-0.0637,-0.0668,-0.0367,-0.0395,-0.0398,-0.0398,-0.0398,-0.0397,-0.0397,-0.0397,0.062,0.0697,0.0729,0.0869,0.0921,0.1029,0.109,0.1195,0.1287,0.1423,0.147,0.1491,0.1195,0.0179,-0.0504,-0.0672,-0.0905,-0.0922,-0.1015,-0.0887,-0.0872,-0.0856,-0.0905,-0.1015,-0.1016,-0.1296,-0.1299,-0.1302]}],[{"header":{"parameterUnit":"m.s-1","parameterCategory":2,"la1":30.2991,"la2":30.254,"lo1":-89.0895,"lo2":-89.0444,"dy":0.0017,"dx":0.0017,"nx":28,"ny":28,"refTime":"2024-09-28T09:00:00:Z","depth":"2","parameterNumber":2,"parameterNumberName":"U-component_of_CURRENTS"},"data":[0,0,0,0,0,0,0,0,0,0,0,0,0,0,0,0,0,0,0,0,0,0,0,0,0,0,0,0,0,0,0,0,0,0,0,0,0,0,0,0,0,0,0,0,0,0,0,0,0,0,0,0,0,0,0,0,0,0,0.0186,0.0183,0,0.002,0.0019,0.0019,0.0133,0.0136,0.014,0.0144,0.0138,0.0134,0.0131,0,0,0,0,0,0,0,0,0,0,0,0,0,0.0389,0.0387,0.0186,0.0183,0.0179,0.002,0.0019,0.0018,0.0132,0.0137,0.0141,0.0146,0.0139,0.0135,0.013,0,0,0,0,0,0,0,0,0,0,0,0,0,0.0284,0.0387,0.0187,0.0206,0.0205,0.002,0.0019,0.0018,0.0131,0.0137,0.0142,0.0148,0.0141,0.0135,0.013,-0.0018,0,0,0.0113,0.0111,0,0,0,0,0,0,0,0,0.029,0.0279,0.0207,0.0204,0.0203,0.009,0.0088,0.0009,0.013,0.0175,0.0144,0.0151,0.0123,0.0119,0.0094,-0.0019,-0.0019,0.0112,0.0109,0.0107,0.0105,0,0,0,0,0,0,0,0.0298,0.0285,0.0136,0.0202,0.0199,0.0148,0.0144,0.0073,0.0133,0.0171,0.0175,0.0131,0.0126,0.0099,0.0095,-0.0019,0.0113,0.0108,0.0104,0.0102,-0.0027,-0.0027,0,0,0,0,0,0,0.0293,0.0292,0.0141,0.0129,0.0245,0.014,0.0135,0.0132,0.0131,0.013,0.0127,0.0137,0.0106,0.0101,0.0095,0.0106,0.0107,0.0102,0.0098,-0.0027,-0.0027,-0.0027,0,0,0,0,0,0,0.0298,0.0282,0.0147,0.0193,0.0171,0.0131,0.0126,0.0126,0.0145,0.0092,0.01,0.0151,0.011,0.0103,0.0063,0.0101,0.0099,0.0094,-0.0027,-0.0027,-0.0027,0.0009,0,0,0,0,0,0,0.0306,0.0287,0.0284,0.0194,0.0167,0.0064,0.0119,0.0118,0.0098,0.0113,0.0112,0.0116,0.0114,0.0071,0.0057,0.0093,0.009,-0.0026,-0.0027,-0.0027,0.0008,0.001,0.0012,0,0,0,0,0,0.0314,0.0253,0.0286,0.0266,0.0167,0.006,0.0045,0.0043,0.0095,0.0089,0.0093,0.0119,0.0064,0.0063,0.0048,0.0084,-0.0026,-0.0027,-0.0027,0.0007,0.001,0.0012,0,0,0,0,0,0,0.0314,0.0254,0.029,0.0215,0.0166,0.0076,0.0033,0.0047,0.0039,0.0061,0.0071,0.007,0.0067,0.0044,0.0045,0.0049,0.0039,0.0035,0.007,0.0072,0.0074,0.0106,0.0085,0,0,0,0,0,0.0315,0.031,0.0221,0.0188,0.0143,0.0106,0.0064,0.0061,0.0024,0.0031,0.0031,0.0034,0.0035,0.0033,0.0011,-0.0034,-0.0014,-0.0007,-0.0005,-0.0003,0.0012,0.0039,0.0045,-0.0028,-0.0028,-0.0028,0,0,0.0299,0.0279,0.0268,0.0195,0.0156,0.0096,0.0101,0.0026,0.003,0.002,0.0029,0.0024,0.0023,0.001,0.0009,0.0006,0.0032,-0.0003,-0.0001,0.0013,0.0039,0.0047,0.0053,-0.0028,-0.0028,-0.0028,0,0,0.025,0.0253,0.0215,0.0182,0.0111,0.008,0.007,-0.001,0.0013,-0.0028,0.001,0.002,-0.002,0.0011,0.0019,0.0002,0.0039,0.0013,0.0047,0.0071,0.0078,0.0085,0.014,0.0151,0.0017,0.0017,0.0017,0,0.0238,0.0207,0.0181,0.0137,0.0114,0.0088,0.0037,0.0024,-0.0034,-0.0015,-0.0011,-0.0003,-0.0008,0.003,0.0047,0.0013,0.004,0.0041,0.0077,0.0083,0.0089,0.0145,0.0156,0.0019,0.0019,0.0018,0.0018,0,0.0149,0.0148,0.011,0.0102,0.0067,0.001,-0.0021,-0.0022,-0.0,0.0001,0.0028,0.0007,0.0034,0.0041,0.0039,0.0094,0.0106,0.0077,0.0077,0.0099,0.0156,0.0167,0.0021,0.0021,0.002,0.002,0,0,0.0085,0.0056,0.005,0.0086,0.0051,0.0015,0.002,0.0011,0.0054,0.0026,0.0083,0.0085,0.0099,0.0109,0.0116,0.0138,0.0208,0.0133,0.0133,0.0201,0.0296,0.0392,0.0414,0.0187,0.0188,0.0189,0.0327,0,0.0044,-0.0018,-0.0023,-0.0017,-0.0035,-0.0014,0.0011,0.0024,0.0047,0.0088,0.0105,0.0147,0.0121,0.0152,0.0166,0.0202,0.0237,0.0176,0.0253,0.0257,0.035,0.043,0.0336,0.0458,0.0338,0.034,0.0341,0,-0.0035,-0.0033,-0.0077,0.0003,-0.0012,-0.001,0.0064,0.0077,0.0133,0.0159,0.0196,0.0215,0.0273,0.0231,0.0307,0.0272,0.0295,0.0308,0.0312,0.04,0.0375,0.0411,0.0484,0.0361,0.0359,0.0358,0.0357,0,-0.0006,-0.0049,-0.0057,-0.0046,-0.0009,0.0017,0.0045,0.01,0.0148,0.0219,0.0274,0.031,0.0376,0.0377,0.0434,0.0372,0.0523,0.0433,0.054,0.0548,0.0485,0.0485,0.0484,0.0483,0.0483,0.0483,0.0482,0,0.0002,0.0016,-0.005,-0.0006,0.0004,0.0034,0.0093,0.0134,0.021,0.0289,0.0321,0.0401,0.0418,0.0504,0.0488,0.06,0.0575,0.0588,0.0601,0.0498,0.0498,0.041,0.0399,0.0488,0.0487,0.0486,0.0485,0,0.0069,0.0021,0.0029,0.0036,0.004,0.0048,0.012,0.0171,0.0253,0.036,0.04,0.0515,0.0651,0.0692,0.0753,0.0728,0.0777,0.0815,0.0727,0.0728,0.0758,0.0747,0.0922,0.0927,0.0931,0.0935,0.0938,0,0.0096,0.0105,0.0059,0.0051,0.0058,0.0076,0.0113,0.0181,0.0244,0.043,0.0489,0.0679,0.079,0.096,0.0984,0.1038,0.0972,0.0971,0.0826,0.0815,0.0808,0.0791,0.0775,0.0751,0.0752,0.0753,0.0754,0,0.0186,0.0139,0.015,0.0126,0.0125,0.0117,0.0179,0.0223,0.0334,0.0439,0.061,0.072,0.0945,0.1009,0.1141,0.1111,0.0947,0.0995,0.1016,0.0672,0.0669,0.0657,0.0644,0.0762,0.0761,0.0761,0.076,0.076,0.0235,0.0211,0.0205,0.0158,0.0193,0.0183,0.0195,0.0269,0.0364,0.0523,0.0639,0.0806,0.0884,0.1066,0.1094,0.1119,0.1119,0.0993,0.0982,0.0972,0.0946,0.0952,0.1094,0.1095,0.1096,0.1097,0.1098,0,0.0241,0.0226,0.0237,0.0179,0.0217,0.0226,0.0267,0.0272,0.0362,0.0539,0.068,0.0743,0.0856,0.0971,0.1034,0.1052,0.0942,0.0999,0.0821,0.0815,0.0809,0.0765,0.0871,0.087,0.087,0.087,0,0,0.0213,0.0225,0.0187,0.0179,0.0207,0.024,0.0257,0.0287,0.0401,0.0524,0.0653,0.0787,0.0914,0.0873,0.0884,0.0909,0.0839,0.0872,0.1047,0.0828,0.0821,0.0799,0.0728,0,0,0,0,0]},{"header":{"parameterUnit":"m.s-1","parameterCategory":2,"la1":30.2991,"la2":30.254,"lo1":-89.0895,"lo2":-89.0444,"dy":0.0017,"dx":0.0017,"nx":28,"ny":28,"refTime":"2024-09-28T09:00:00:Z","depth":"2","parameterNumber":3,"parameterNumberName":"V-component_of_CURRENTS"},"data":[0,0,0,0,0,0,0,0,0,0,0,0,0,0,0,0,0,0,0,0,0,0,0,0,0,0,0,0,0,0,0,0,0,0,0,0,0,0,0,0,0,0,0,0,0,0,0,0,0,0,0,0,0,0,0,0,0,0,-0.0341,-0.0342,0,-0.0366,-0.0366,-0.0366,-0.0343,-0.0343,-0.0342,-0.0342,-0.0269,-0.0268,-0.0266,0,0,0,0,0,0,0,0,0,0,0,0,0,-0.0235,-0.0237,-0.0341,-0.0342,-0.0343,-0.0366,-0.0366,-0.0366,-0.0343,-0.0343,-0.0342,-0.0342,-0.027,-0.0268,-0.0266,0,0,0,0,0,0,0,0,0,0,0,0,0,-0.0267,-0.0237,-0.0341,-0.0338,-0.0339,-0.0366,-0.0366,-0.0365,-0.0343,-0.0343,-0.0342,-0.0341,-0.027,-0.0268,-0.0266,-0.0264,0,0,-0.0259,-0.0258,0,0,0,0,0,0,0,0,-0.0266,-0.0271,-0.0338,-0.0339,-0.0339,-0.0356,-0.0302,-0.0329,-0.0343,-0.0336,-0.0342,-0.0341,-0.0293,-0.0289,-0.0289,-0.0261,-0.0258,-0.0259,-0.0257,-0.0256,-0.0256,0,0,0,0,0,0,0,-0.0263,-0.0269,-0.0345,-0.0339,-0.034,-0.0323,-0.0326,-0.0307,-0.0312,-0.0336,-0.0336,-0.0348,-0.0292,-0.0291,-0.0287,-0.0256,-0.0259,-0.0257,-0.0255,-0.0254,-0.0173,-0.0172,0,0,0,0,0,0,-0.0275,-0.0268,-0.0345,-0.0347,-0.0306,-0.0326,-0.033,-0.0346,-0.0314,-0.0311,-0.0348,-0.0347,-0.0295,-0.0289,-0.0284,-0.0237,-0.0256,-0.0254,-0.0253,-0.0174,-0.0173,-0.0172,0,0,0,0,0,0,-0.0272,-0.0281,-0.0344,-0.0311,-0.0319,-0.0329,-0.0348,-0.0347,-0.0343,-0.0325,-0.0319,-0.0344,-0.0294,-0.0287,-0.0263,-0.0236,-0.0253,-0.0251,-0.0175,-0.0174,-0.0172,-0.0171,0,0,0,0,0,0,-0.0269,-0.028,-0.0289,-0.0313,-0.0321,-0.0356,-0.0349,-0.0349,-0.0354,-0.0352,-0.0319,-0.0313,-0.0293,-0.0266,-0.026,-0.0233,-0.0249,-0.0176,-0.0174,-0.0173,-0.0172,-0.017,-0.0168,0,0,0,0,0,-0.0265,-0.0293,-0.0289,-0.0298,-0.0335,-0.0356,-0.0358,-0.0359,-0.0354,-0.0351,-0.0331,-0.0313,-0.0252,-0.0265,-0.0257,-0.0228,-0.0176,-0.0175,-0.0173,-0.0173,-0.017,-0.0168,0,0,0,0,0,0,-0.0252,-0.0294,-0.029,-0.0328,-0.0335,-0.0354,-0.0361,-0.036,-0.0344,-0.0339,-0.0313,-0.0305,-0.027,-0.0254,-0.0268,-0.02,-0.0207,-0.0204,-0.0209,-0.0206,-0.0205,-0.021,-0.0247,0,0,0,0,0,-0.0254,-0.0274,-0.0306,-0.0324,-0.0338,-0.0345,-0.0352,-0.0354,-0.0351,-0.0344,-0.0323,-0.0293,-0.0259,-0.0239,-0.0214,-0.0184,-0.021,-0.0157,-0.0155,-0.0153,-0.0153,-0.0199,-0.0203,-0.0166,-0.0166,-0.0166,0,0,-0.0252,-0.0275,-0.0286,-0.032,-0.0328,-0.0337,-0.0346,-0.0363,-0.0348,-0.0338,-0.0309,-0.029,-0.0252,-0.0215,-0.0196,-0.0196,-0.0176,-0.0151,-0.015,-0.0151,-0.0198,-0.0202,-0.0205,-0.0165,-0.0165,-0.0166,0,0,-0.0257,-0.0281,-0.0299,-0.0307,-0.0328,-0.0333,-0.0338,-0.0356,-0.0343,-0.0324,-0.0304,-0.0278,-0.0232,-0.02,-0.0175,-0.0149,-0.017,-0.0132,-0.012,-0.0165,-0.0169,-0.0173,-0.0214,-0.0221,-0.0125,-0.0125,-0.0125,0,-0.0249,-0.0272,-0.0303,-0.0315,-0.0313,-0.033,-0.0331,-0.0328,-0.0325,-0.0308,-0.031,-0.0254,-0.0221,-0.0172,-0.0153,-0.0143,-0.0181,-0.0133,-0.0165,-0.017,-0.0174,-0.0215,-0.0223,-0.0125,-0.0125,-0.0125,-0.0125,0,-0.0268,-0.0272,-0.0284,-0.0295,-0.0298,-0.0304,-0.031,-0.0299,-0.0288,-0.0281,-0.0247,-0.0226,-0.0191,-0.0168,-0.0146,-0.0139,-0.0161,-0.0167,-0.0178,-0.0178,-0.022,-0.0229,-0.0124,-0.0124,-0.0124,-0.0124,0,0,-0.0274,-0.0293,-0.0293,-0.0271,-0.0284,-0.0284,-0.0265,-0.0249,-0.0228,-0.0228,-0.0208,-0.0153,-0.0163,-0.0137,-0.012,-0.0143,-0.0193,-0.0163,-0.0166,-0.0216,-0.0305,-0.0314,-0.0324,-0.0221,-0.0222,-0.0224,-0.0325,0,-0.0266,-0.0276,-0.0287,-0.0255,-0.0248,-0.0243,-0.0215,-0.02,-0.019,-0.0181,-0.0174,-0.0153,-0.0145,-0.0132,-0.0158,-0.0186,-0.0217,-0.0165,-0.0287,-0.029,-0.0308,-0.0335,-0.03,-0.0388,-0.0334,-0.0335,-0.0336,0,-0.0277,-0.0267,-0.0254,-0.0206,-0.0205,-0.0185,-0.014,-0.0122,-0.0116,-0.0114,-0.0121,-0.0136,-0.0148,-0.0158,-0.0234,-0.0211,-0.0253,-0.0286,-0.0291,-0.0306,-0.0315,-0.0377,-0.0406,-0.0352,-0.0351,-0.0349,-0.0348,0,-0.0245,-0.0237,-0.0214,-0.0203,-0.0168,-0.0136,-0.0113,-0.0093,-0.0068,-0.0085,-0.0086,-0.013,-0.0139,-0.0225,-0.0273,-0.0273,-0.0378,-0.0389,-0.0439,-0.044,-0.0436,-0.0434,-0.0457,-0.0456,-0.0456,-0.0456,-0.0456,0,-0.0217,-0.0189,-0.0193,-0.016,-0.0111,-0.01,-0.0048,-0.0034,-0.0025,-0.0,-0.0053,-0.0055,-0.0159,-0.0222,-0.0296,-0.0394,-0.0402,-0.0448,-0.0472,-0.0432,-0.0429,-0.0411,-0.0404,-0.046,-0.0459,-0.0458,-0.0458,0,-0.0168,-0.0181,-0.0142,-0.0106,-0.0087,-0.0052,0.0,0.0026,0.0032,0.0051,0.0043,-0.0009,-0.0101,-0.0203,-0.0329,-0.04,-0.0504,-0.0527,-0.0469,-0.0484,-0.0538,-0.053,-0.0634,-0.0636,-0.0637,-0.0638,-0.0638,0,-0.0143,-0.0121,-0.0098,-0.0076,-0.0048,0.0,0.0034,0.0055,0.0077,0.009,0.0094,0.0024,-0.0033,-0.023,-0.0376,-0.0542,-0.0514,-0.0588,-0.0575,-0.0547,-0.0559,-0.0549,-0.054,-0.0572,-0.0572,-0.0572,-0.0572,0,-0.0073,-0.0084,-0.0054,-0.0013,0.0021,0.0051,0.0101,0.0123,0.0144,0.0154,0.0155,0.0107,-0.0064,-0.0229,-0.0431,-0.0521,-0.0572,-0.0596,-0.0598,-0.0523,-0.0494,-0.0503,-0.0495,-0.0573,-0.0573,-0.0573,-0.0573,-0.0573,-0.0033,-0.0021,-0.0002,0.0034,0.0083,0.0105,0.0134,0.0169,0.0197,0.0208,0.0177,0.0131,-0.0066,-0.0336,-0.0478,-0.0586,-0.0612,-0.0636,-0.0634,-0.0632,-0.0597,-0.0571,-0.0658,-0.0659,-0.0659,-0.0659,-0.066,0,0.0007,0.0012,0.0046,0.0066,0.0111,0.014,0.0185,0.019,0.0222,0.0241,0.0224,0.0058,-0.0132,-0.0279,-0.0463,-0.0624,-0.0612,-0.0622,-0.0571,-0.0571,-0.057,-0.053,-0.0575,-0.0575,-0.0575,-0.0575,0,0,0.0002,0.0038,0.0028,0.0069,0.0121,0.0172,0.02,0.0219,0.0253,0.0251,0.0257,0.0114,-0.0076,-0.0205,-0.0401,-0.0455,-0.0463,-0.046,-0.0517,-0.0434,-0.0431,-0.0577,-0.0515,0,0,0,0,0]}],[{"header":{"parameterUnit":"m.s-1","parameterCategory":2,"la1":30.2991,"la2":30.254,"lo1":-89.0895,"lo2":-89.0444,"dy":0.0017,"dx":0.0017,"nx":28,"ny":28,"refTime":"2024-09-28T09:00:00:Z","depth":"4","parameterNumber":2,"parameterNumberName":"U-component_of_CURRENTS"},"data":[0,0,0,0,0,0,0,0,0,0,0,0,0,0,0,0,0,0,0,0,0,0,0,0,0,0,0,0,0,0,0,0,0,0,0,0,0,0,0,0,0,0,0,0,0,0,0,0,0,0,0,0,0,0,0,0,0,0,-0.005,-0.005,0,-0.0068,-0.0068,-0.0068,-0.0077,-0.0077,-0.0077,-0.0077,-0.0101,-0.0101,-0.0102,0,0,0,0,0,0,0,0,0,0,0,0,0,-0.0038,-0.0038,-0.005,-0.005,-0.005,-0.0068,-0.0068,-0.0068,-0.0077,-0.0077,-0.0077,-0.0077,-0.0101,-0.0101,-0.0102,0,0,0,0,0,0,0,0,0,0,0,0,0,-0.0048,-0.0038,-0.005,-0.0056,-0.0057,-0.0068,-0.0068,-0.0068,-0.0077,-0.0077,-0.0077,-0.0077,-0.01,-0.0101,-0.0102,-0.0109,0,0,-0.0105,-0.0106,0,0,0,0,0,0,0,0,-0.0048,-0.0049,-0.0055,-0.0056,-0.0057,-0.007,-0.0072,-0.0082,-0.0077,-0.007,-0.0077,-0.0077,-0.0091,-0.0093,-0.0096,-0.011,-0.0111,-0.0105,-0.0106,-0.0106,-0.0107,0,0,0,0,0,0,0,-0.0047,-0.0048,-0.0057,-0.0055,-0.0056,-0.0064,-0.0065,-0.0074,-0.0081,-0.007,-0.0071,-0.0073,-0.0091,-0.0095,-0.0097,-0.0111,-0.0105,-0.0106,-0.0107,-0.0107,-0.0139,-0.0139,0,0,0,0,0,0,-0.0043,-0.0047,-0.0056,-0.0058,-0.0052,-0.0064,-0.0065,-0.0066,-0.008,-0.0082,-0.0073,-0.0073,-0.0094,-0.0096,-0.0098,-0.0105,-0.0106,-0.0107,-0.0108,-0.0138,-0.0139,-0.0139,0,0,0,0,0,0,-0.0043,-0.0044,-0.0056,-0.0053,-0.0055,-0.0064,-0.0065,-0.0066,-0.0073,-0.0082,-0.0084,-0.0078,-0.0094,-0.0096,-0.0107,-0.0106,-0.0108,-0.0108,-0.0138,-0.0139,-0.0139,-0.0119,0,0,0,0,0,0,-0.0043,-0.0044,-0.0046,-0.0052,-0.0055,-0.0063,-0.0065,-0.0067,-0.0074,-0.0074,-0.0087,-0.0089,-0.0094,-0.0106,-0.0108,-0.0107,-0.0109,-0.0138,-0.0138,-0.0139,-0.012,-0.0119,-0.0118,0,0,0,0,0,-0.0042,-0.0046,-0.0046,-0.0048,-0.0057,-0.0063,-0.0066,-0.0072,-0.0074,-0.0078,-0.0085,-0.0089,-0.0111,-0.0107,-0.011,-0.0108,-0.0138,-0.0138,-0.0139,-0.012,-0.0119,-0.0118,0,0,0,0,0,0,-0.0047,-0.0048,-0.0048,-0.0053,-0.0058,-0.0065,-0.0071,-0.0074,-0.0083,-0.0084,-0.0092,-0.0094,-0.0103,-0.0112,-0.0107,-0.012,-0.0125,-0.0126,-0.011,-0.0109,-0.0108,-0.0096,-0.011,0,0,0,0,0,-0.0048,-0.0051,-0.0052,-0.0059,-0.0059,-0.0065,-0.007,-0.0072,-0.0079,-0.0083,-0.0091,-0.01,-0.0107,-0.0113,-0.0121,-0.0129,-0.0117,-0.0132,-0.0131,-0.013,-0.0123,-0.0117,-0.0115,-0.0141,-0.0141,-0.0141,0,0,-0.0054,-0.0054,-0.0058,-0.006,-0.0064,-0.0066,-0.0068,-0.0074,-0.0075,-0.0085,-0.0091,-0.0098,-0.011,-0.0116,-0.0121,-0.0123,-0.0111,-0.0131,-0.013,-0.0123,-0.0117,-0.0115,-0.0112,-0.0141,-0.0141,-0.0141,0,0,-0.0065,-0.0065,-0.0068,-0.0069,-0.0072,-0.0072,-0.0073,-0.0077,-0.0078,-0.0083,-0.0089,-0.0094,-0.0109,-0.0113,-0.0117,-0.012,-0.0108,-0.0127,-0.0113,-0.0107,-0.0104,-0.0102,-0.0056,-0.005,-0.0127,-0.0127,-0.0127,0,-0.0072,-0.0072,-0.0072,-0.0072,-0.0072,-0.0073,-0.0073,-0.0075,-0.0082,-0.0078,-0.0083,-0.0095,-0.0105,-0.0107,-0.0106,-0.0117,-0.0099,-0.0113,-0.0104,-0.0102,-0.01,-0.0054,-0.0048,-0.0126,-0.0126,-0.0126,-0.0126,0,-0.0081,-0.008,-0.0083,-0.008,-0.008,-0.0082,-0.0077,-0.0076,-0.0075,-0.0073,-0.0074,-0.0084,-0.0088,-0.0095,-0.01,-0.0093,-0.0078,-0.0103,-0.0102,-0.0096,-0.0048,-0.0041,-0.0125,-0.0125,-0.0125,-0.0125,0,0,-0.01,-0.009,-0.0092,-0.0085,-0.0081,-0.0081,-0.0076,-0.0068,-0.006,-0.0064,-0.0056,-0.0066,-0.0065,-0.007,-0.0079,-0.0074,-0.0036,-0.0079,-0.0079,-0.0024,0.0011,0.0025,0.0034,-0.0061,-0.006,-0.006,0.0048,0,-0.0107,-0.0102,-0.0096,-0.0092,-0.0085,-0.0078,-0.0072,-0.0065,-0.0057,-0.005,-0.0051,-0.005,-0.0058,-0.0058,-0.0053,-0.0045,-0.0023,-0.0061,-0.0011,-0.0009,0.001,0.004,-0.0058,0.0053,0.0055,0.0056,0.0057,0,-0.0116,-0.0107,-0.01,-0.0083,-0.008,-0.0078,-0.0059,-0.0053,-0.0039,-0.0032,-0.0025,-0.0027,-0.0011,-0.003,0.0011,-0.0013,0.0007,0.0014,0.0018,0.0028,0.0017,0.0038,0.0069,0.0068,0.0067,0.0066,0.0065,0,-0.0123,-0.011,-0.0101,-0.0098,-0.008,-0.0073,-0.0064,-0.0048,-0.0036,-0.0019,-0.0007,0.0006,0.002,0.0035,0.0065,0.0038,0.0115,0.0077,0.0117,0.012,0.0066,0.0062,0.0109,0.0109,0.0108,0.0108,0.0108,0,-0.0127,-0.0122,-0.0102,-0.0099,-0.0082,-0.0071,-0.0055,-0.0042,-0.0024,-0.0003,0.0002,0.0023,0.0034,0.0075,0.0089,0.0144,0.0142,0.014,0.0146,0.0075,0.007,0.0073,0.0067,0.0112,0.0111,0.011,0.011,0,-0.0137,-0.0126,-0.0114,-0.0094,-0.0086,-0.0074,-0.005,-0.0036,-0.0016,0.0012,0.002,0.0052,0.0114,0.0146,0.0189,0.0188,0.0226,0.0244,0.0213,0.0212,0.0225,0.0219,0.0301,0.0302,0.0303,0.0304,0.0305,0,-0.0141,-0.0136,-0.0113,-0.0099,-0.009,-0.0069,-0.0055,-0.0035,-0.0017,0.0034,0.0049,0.0114,0.0141,0.024,0.0253,0.0315,0.0299,0.0325,0.0232,0.0246,0.0244,0.0236,0.0228,0.0307,0.0307,0.0307,0.0308,0,-0.0147,-0.0141,-0.0131,-0.0102,-0.0084,-0.006,-0.0037,-0.0022,0.0012,0.0026,0.0091,0.0135,0.0213,0.0258,0.0322,0.0345,0.0304,0.0336,0.0332,0.0245,0.0254,0.0249,0.024,0.0312,0.0311,0.0311,0.031,0,-0.0156,-0.0147,-0.0131,-0.0103,-0.0078,-0.0046,-0.0036,0.0002,0.0025,0.0079,0.0104,0.0176,0.0217,0.0277,0.0326,0.0367,0.0345,0.0316,0.0313,0.0309,0.0257,0.0266,0.0351,0,0,0,0,0,-0.0161,-0.015,-0.0127,-0.0092,-0.0066,-0.0046,-0.0018,-0.0007,0.0024,0.0074,0.0092,0.0165,0.0245,0.0275,0.0321,0.0325,0.0342,0.0374,0.0304,0.0334,0.0329,0.0265,0,0,0,0,0,0,-0.016,-0.0151,-0.0131,-0.0086,-0.0057,-0.0025,-0.0004,0.0016,0.0046,0.008,0.013,0.0154,0.0238,0.023,0.0319,0.033,0.0284,0.0415,0.0415,0.0336,0.0332,0.0328,0.0261,0,0,0,0,0]},{"header":{"parameterUnit":"m.s-1","parameterCategory":2,"la1":30.2991,"la2":30.254,"lo1":-89.0895,"lo2":-89.0444,"dy":0.0017,"dx":0.0017,"nx":28,"ny":28,"refTime":"2024-09-28T09:00:00:Z","depth":"4","parameterNumber":3,"parameterNumberName":"V-component_of_CURRENTS"},"data":[0,0,0,0,0,0,0,0,0,0,0,0,0,0,0,0,0,0,0,0,0,0,0,0,0,0,0,0,0,0,0,0,0,0,0,0,0,0,0,0,0,0,0,0,0,0,0,0,0,0,0,0,0,0,0,0,0,0,-0.0118,-0.0118,0,-0.0135,-0.0135,-0.0136,-0.0152,-0.0152,-0.0152,-0.0152,-0.0185,-0.0185,-0.0186,0,0,0,0,0,0,0,0,0,0,0,0,0,-0.0109,-0.0109,-0.0118,-0.0118,-0.0118,-0.0135,-0.0135,-0.0136,-0.0152,-0.0152,-0.0152,-0.0152,-0.0184,-0.0185,-0.0186,0,0,0,0,0,0,0,0,0,0,0,0,0,-0.0118,-0.0109,-0.0118,-0.0128,-0.0129,-0.0135,-0.0135,-0.0136,-0.0152,-0.0152,-0.0152,-0.0153,-0.0184,-0.0185,-0.0186,-0.0188,0,0,-0.0189,-0.019,0,0,0,0,0,0,0,0,-0.0118,-0.0119,-0.0126,-0.0127,-0.0128,-0.0141,-0.0144,-0.0154,-0.0152,-0.0144,-0.0152,-0.0153,-0.0171,-0.0173,-0.0176,-0.019,-0.0191,-0.0189,-0.019,-0.0191,-0.0191,0,0,0,0,0,0,0,-0.0117,-0.0118,-0.0125,-0.0126,-0.0127,-0.0135,-0.0136,-0.0146,-0.0156,-0.0144,-0.0146,-0.0146,-0.0172,-0.0175,-0.0177,-0.0192,-0.0189,-0.019,-0.0191,-0.0191,-0.0221,-0.0221,0,0,0,0,0,0,-0.0113,-0.0118,-0.0125,-0.0126,-0.0123,-0.0135,-0.0137,-0.0137,-0.0156,-0.0159,-0.0146,-0.0147,-0.0173,-0.0176,-0.0178,-0.0201,-0.0191,-0.0192,-0.0192,-0.0221,-0.0221,-0.0221,0,0,0,0,0,0,-0.0113,-0.0113,-0.0124,-0.0122,-0.0123,-0.0135,-0.0135,-0.0137,-0.015,-0.0157,-0.0161,-0.0157,-0.0174,-0.0177,-0.0194,-0.0202,-0.0192,-0.0193,-0.0221,-0.0221,-0.0221,-0.0235,0,0,0,0,0,0,-0.0112,-0.0113,-0.012,-0.0121,-0.0123,-0.0133,-0.0135,-0.0138,-0.0149,-0.0151,-0.0168,-0.017,-0.0174,-0.0192,-0.0195,-0.0203,-0.0194,-0.022,-0.0221,-0.0221,-0.0234,-0.0236,-0.0237,0,0,0,0,0,-0.0112,-0.0118,-0.012,-0.0121,-0.0129,-0.0133,-0.0135,-0.0144,-0.015,-0.0157,-0.0168,-0.017,-0.0196,-0.0193,-0.0197,-0.0205,-0.022,-0.0221,-0.0221,-0.0234,-0.0235,-0.0237,0,0,0,0,0,0,-0.0126,-0.0121,-0.0122,-0.0129,-0.0133,-0.0136,-0.0145,-0.0149,-0.0163,-0.0168,-0.0176,-0.0179,-0.0198,-0.0198,-0.0195,-0.0213,-0.0207,-0.0208,-0.0216,-0.0217,-0.0218,-0.0225,-0.0195,0,0,0,0,0,-0.0129,-0.013,-0.0128,-0.0137,-0.0137,-0.0142,-0.0148,-0.0152,-0.0161,-0.0168,-0.018,-0.019,-0.0199,-0.0206,-0.0215,-0.0226,-0.0227,-0.0232,-0.0233,-0.0234,-0.0241,-0.023,-0.023,-0.0222,-0.0222,-0.0222,0,0,-0.0138,-0.0136,-0.0138,-0.0139,-0.0143,-0.0146,-0.0147,-0.0156,-0.0165,-0.0169,-0.0191,-0.0198,-0.0204,-0.0218,-0.0225,-0.022,-0.0241,-0.0235,-0.0236,-0.0242,-0.023,-0.0231,-0.0231,-0.0222,-0.0222,-0.0222,0,0,-0.0149,-0.0153,-0.0153,-0.0153,-0.0156,-0.0158,-0.0161,-0.0168,-0.0178,-0.0193,-0.02,-0.0215,-0.0227,-0.0236,-0.024,-0.0253,-0.025,-0.0251,-0.0262,-0.025,-0.0251,-0.0251,-0.0272,-0.0274,-0.0249,-0.0249,-0.0249,0,-0.0163,-0.0161,-0.0156,-0.0156,-0.0161,-0.0163,-0.0169,-0.0176,-0.0191,-0.0204,-0.0202,-0.023,-0.0237,-0.0255,-0.0258,-0.0258,-0.0255,-0.0256,-0.0252,-0.0252,-0.0252,-0.0273,-0.0276,-0.0249,-0.0249,-0.0249,-0.0249,0,-0.0166,-0.017,-0.0172,-0.0169,-0.0175,-0.0182,-0.0186,-0.02,-0.0211,-0.022,-0.0245,-0.0253,-0.0269,-0.027,-0.0269,-0.0277,-0.0278,-0.0257,-0.0248,-0.0254,-0.0276,-0.0278,-0.025,-0.025,-0.025,-0.025,0,0,-0.0186,-0.0176,-0.0178,-0.0183,-0.0185,-0.0191,-0.0206,-0.0223,-0.0241,-0.0252,-0.0275,-0.029,-0.0295,-0.0299,-0.03,-0.0291,-0.0298,-0.0273,-0.0272,-0.0295,-0.0292,-0.0282,-0.0283,-0.0265,-0.0265,-0.0265,-0.0314,0,-0.0195,-0.0194,-0.0189,-0.0203,-0.0207,-0.0214,-0.0229,-0.0246,-0.0261,-0.0282,-0.0292,-0.031,-0.0304,-0.0312,-0.0303,-0.0301,-0.0301,-0.0289,-0.0282,-0.0282,-0.0273,-0.0283,-0.0265,-0.0315,-0.0316,-0.0316,-0.0316,0,-0.0201,-0.0201,-0.0209,-0.0223,-0.0227,-0.0237,-0.0268,-0.0281,-0.0305,-0.0316,-0.0331,-0.0336,-0.035,-0.0327,-0.0332,-0.032,-0.031,-0.0302,-0.0303,-0.0289,-0.0275,-0.0303,-0.032,-0.032,-0.0319,-0.0319,-0.0319,0,-0.0217,-0.0221,-0.023,-0.0233,-0.0243,-0.0259,-0.0271,-0.0296,-0.0314,-0.0336,-0.0349,-0.0362,-0.0375,-0.0355,-0.0363,-0.0335,-0.0366,-0.0323,-0.0312,-0.0313,-0.0302,-0.03,-0.0316,-0.0316,-0.0316,-0.0316,-0.0316,0,-0.0229,-0.0242,-0.0239,-0.0245,-0.027,-0.0273,-0.0306,-0.032,-0.034,-0.0359,-0.0366,-0.0381,-0.0375,-0.0396,-0.0379,-0.0374,-0.0383,-0.0325,-0.0319,-0.031,-0.0309,-0.0305,-0.0303,-0.0318,-0.0317,-0.0317,-0.0317,0,-0.0251,-0.0244,-0.026,-0.0271,-0.0276,-0.0298,-0.0322,-0.0343,-0.0357,-0.038,-0.0385,-0.0406,-0.0423,-0.0442,-0.0435,-0.0404,-0.0394,-0.039,-0.0425,-0.0419,-0.0343,-0.0341,-0.0359,-0.0359,-0.0359,-0.0359,-0.0359,0,-0.0262,-0.0268,-0.028,-0.029,-0.0296,-0.0321,-0.0338,-0.0354,-0.0367,-0.0389,-0.0397,-0.043,-0.0441,-0.0441,-0.045,-0.0448,-0.0426,-0.0425,-0.0335,-0.0352,-0.0345,-0.0343,-0.0341,-0.0359,-0.0359,-0.0359,-0.0359,0,-0.0289,-0.0292,-0.03,-0.0313,-0.0329,-0.0347,-0.0364,-0.0372,-0.0384,-0.04,-0.0385,-0.0382,-0.0416,-0.0417,-0.0448,-0.043,-0.0421,-0.0423,-0.0421,-0.0337,-0.0352,-0.0344,-0.0343,-0.0358,-0.0358,-0.0359,-0.0359,0,-0.031,-0.0319,-0.0321,-0.0333,-0.035,-0.0356,-0.037,-0.0365,-0.0372,-0.0373,-0.0373,-0.0392,-0.0412,-0.0411,-0.043,-0.0432,-0.0385,-0.0333,-0.0334,-0.0335,-0.0303,-0.0317,-0.0315,0,0,0,0,0,-0.0326,-0.0324,-0.0338,-0.0341,-0.0358,-0.0362,-0.0376,-0.0384,-0.039,-0.0363,-0.0356,-0.0372,-0.0368,-0.0384,-0.0377,-0.043,-0.0411,-0.0419,-0.0357,-0.0357,-0.0357,-0.0321,0,0,0,0,0,0,-0.0329,-0.0342,-0.0336,-0.0342,-0.0342,-0.0357,-0.0362,-0.0369,-0.0346,-0.0346,-0.0352,-0.0336,-0.0358,-0.0373,-0.0367,-0.0373,-0.0319,-0.0429,-0.0427,-0.0357,-0.0357,-0.0357,-0.0321,0,0,0,0,0]}]]